Time,TemperatureF,DewpointF,PressureIn,WindDirection,WindDirectionDegrees,WindSpeedMPH,WindSpeedGustMPH,Humidity,HourlyPrecipIn,Conditions,Clouds,dailyrainin,SoftwareType,DateUTC
2013-03-14 00:01:00,19.0,6.3,30.28,SW,236,0.0,0.0,57,0.00,,,0.08,VWS V14.01,2013-03-14 04:01:00,
2013-03-14 00:02:00,19.0,6.3,30.28,SW,236,0.0,0.0,57,0.00,,,0.08,VWS V14.01,2013-03-14 04:02:00,
2013-03-14 00:03:00,19.0,6.3,30.28,SW,236,0.0,0.0,57,0.00,,,0.08,VWS V14.01,2013-03-14 04:03:00,
2013-03-14 00:04:00,19.0,6.3,30.28,SW,236,0.0,0.0,57,0.00,,,0.08,VWS V14.01,2013-03-14 04:04:00,
2013-03-14 00:09:00,19.0,6.3,30.28,SW,236,0.0,0.0,57,0.00,,,0.08,VWS V14.01,2013-03-14 04:09:00,
2013-03-14 00:14:00,18.9,6.2,30.28,SW,236,0.0,0.0,57,0.00,,,0.08,VWS V14.01,2013-03-14 04:14:00,
2013-03-14 00:19:00,19.0,6.3,30.28,SW,236,0.0,0.0,57,0.00,,,0.08,VWS V14.01,2013-03-14 04:19:00,
2013-03-14 00:24:00,19.0,6.3,30.28,SW,236,0.0,0.0,57,0.00,,,0.08,VWS V14.01,2013-03-14 04:24:00,
2013-03-14 00:29:00,19.0,6.3,30.28,SW,236,0.0,0.0,57,0.00,,,0.08,VWS V14.01,2013-03-14 04:29:00,
2013-03-14 00:34:00,18.3,5.7,30.28,SW,236,0.0,0.0,57,0.00,,,0.08,VWS V14.01,2013-03-14 04:34:00,
2013-03-14 00:41:00,18.7,6.0,30.25,SW,236,0.0,0.0,57,0.00,,,0.08,VWS V14.01,2013-03-14 04:41:00,
2013-03-14 00:47:00,18.3,6.0,30.25,SW,236,0.0,0.0,58,0.00,,,0.08,VWS V14.01,2013-03-14 04:47:00,
2013-03-14 00:53:00,18.1,5.9,30.25,SW,236,0.0,0.0,58,0.00,,,0.08,VWS V14.01,2013-03-14 04:53:00,
2013-03-14 00:59:00,17.6,5.3,30.25,SW,236,0.0,0.0,58,0.00,,,0.08,VWS V14.01,2013-03-14 04:59:00,
2013-03-14 01:04:00,17.8,5.5,30.25,SW,236,0.0,0.0,58,0.00,,,0.00,VWS V14.01,2013-03-14 05:04:00,
2013-03-14 01:10:00,18.1,5.9,30.25,SW,236,0.0,0.0,58,0.00,,,0.00,VWS V14.01,2013-03-14 05:10:00,
2013-03-14 01:16:00,18.5,6.6,30.25,SW,236,0.0,0.0,59,0.00,,,0.00,VWS V14.01,2013-03-14 05:16:00,
2013-03-14 01:21:00,18.5,6.6,30.25,SW,236,0.0,0.0,59,0.00,,,0.00,VWS V14.01,2013-03-14 05:21:00,
2013-03-14 01:26:00,18.5,6.6,30.28,SW,236,0.0,0.0,59,0.00,,,0.00,VWS V14.01,2013-03-14 05:26:00,
2013-03-14 01:32:00,18.5,6.6,30.28,SW,236,0.0,0.0,59,0.00,,,0.00,VWS V14.01,2013-03-14 05:32:00,
2013-03-14 01:38:00,18.5,6.6,30.28,SW,236,0.0,0.0,59,0.00,,,0.00,VWS V14.01,2013-03-14 05:38:00,
2013-03-14 01:44:00,18.7,6.7,30.28,SW,236,0.0,0.0,59,0.00,,,0.00,VWS V14.01,2013-03-14 05:44:00,
2013-03-14 01:51:00,18.9,6.9,30.28,SW,236,0.0,0.0,59,0.00,,,0.00,VWS V14.01,2013-03-14 05:51:00,
2013-03-14 01:56:00,18.9,7.3,30.28,SW,236,0.0,0.0,60,0.00,,,0.00,VWS V14.01,2013-03-14 05:56:00,
2013-03-14 02:02:00,19.0,7.4,30.28,SW,236,4.0,6.7,60,0.00,,,0.00,VWS V14.01,2013-03-14 06:02:00,
2013-03-14 02:08:00,19.2,7.6,30.28,SW,235,4.0,6.7,60,0.00,,,0.00,VWS V14.01,2013-03-14 06:08:00,
2013-03-14 02:13:00,19.0,7.4,30.28,SW,235,0.0,0.0,60,0.00,,,0.00,VWS V14.01,2013-03-14 06:13:00,
2013-03-14 02:19:00,19.0,7.4,30.28,SW,235,0.0,0.0,60,0.00,,,0.00,VWS V14.01,2013-03-14 06:19:00,
2013-03-14 02:24:00,19.2,7.6,30.28,SW,231,4.0,7.8,60,0.00,,,0.00,VWS V14.01,2013-03-14 06:24:00,
2013-03-14 02:31:00,19.2,7.6,30.28,SW,232,4.0,7.8,60,0.00,,,0.00,VWS V14.01,2013-03-14 06:31:00,
2013-03-14 02:36:00,19.2,7.6,30.28,SW,231,4.0,7.8,60,0.00,,,0.00,VWS V14.01,2013-03-14 06:36:00,
2013-03-14 02:42:00,19.2,7.6,30.28,SW,232,3.4,6.7,60,0.00,,,0.00,VWS V14.01,2013-03-14 06:42:00,
2013-03-14 02:47:00,19.0,7.4,30.28,SW,232,0.0,5.6,60,0.00,,,0.00,VWS V14.01,2013-03-14 06:47:00,
2013-03-14 02:52:00,19.0,7.4,30.28,SW,232,0.0,5.6,60,0.00,,,0.00,VWS V14.01,2013-03-14 06:52:00,
2013-03-14 02:58:00,19.0,7.4,30.28,SW,232,0.0,0.0,60,0.00,,,0.00,VWS V14.01,2013-03-14 06:58:00,
2013-03-14 03:03:00,19.2,7.6,30.28,SW,232,0.0,0.0,60,0.00,,,0.00,VWS V14.01,2013-03-14 07:03:00,
2013-03-14 03:09:00,19.0,7.4,30.28,SW,232,0.0,0.0,60,0.00,,,0.00,VWS V14.01,2013-03-14 07:09:00,
2013-03-14 03:15:00,17.8,6.3,30.28,SW,232,0.0,0.0,60,0.00,,,0.00,VWS V14.01,2013-03-14 07:15:00,
2013-03-14 03:21:00,17.6,6.1,30.28,SW,232,0.0,0.0,60,0.00,,,0.00,VWS V14.01,2013-03-14 07:21:00,
2013-03-14 03:27:00,17.4,5.9,30.28,SW,232,0.0,0.0,60,0.00,,,0.00,VWS V14.01,2013-03-14 07:27:00,
2013-03-14 03:33:00,18.1,6.6,30.28,SW,232,0.0,0.0,60,0.00,,,0.00,VWS V14.01,2013-03-14 07:33:00,
2013-03-14 03:38:00,18.3,7.1,30.28,SW,232,0.0,0.0,61,0.00,,,0.00,VWS V14.01,2013-03-14 07:38:00,
2013-03-14 03:43:00,18.7,7.5,30.28,SW,232,0.0,0.0,61,0.00,,,0.00,VWS V14.01,2013-03-14 07:43:00,
2013-03-14 03:48:00,18.7,7.5,30.28,SW,232,0.0,0.0,61,0.00,,,0.00,VWS V14.01,2013-03-14 07:48:00,
2013-03-14 03:54:00,18.9,8.0,30.28,SW,232,0.0,0.0,62,0.00,,,0.00,VWS V14.01,2013-03-14 07:54:00,
2013-03-14 03:59:00,18.9,8.0,30.28,SW,232,0.0,0.0,62,0.00,,,0.00,VWS V14.01,2013-03-14 07:59:00,
2013-03-14 04:04:00,18.9,8.0,30.28,SW,232,0.0,0.0,62,0.00,,,0.00,VWS V14.01,2013-03-14 08:04:00,
2013-03-14 04:09:00,18.7,7.8,30.28,SW,232,0.0,0.0,62,0.00,,,0.00,VWS V14.01,2013-03-14 08:09:00,
2013-03-14 04:14:00,18.9,8.0,30.28,SW,232,0.0,0.0,62,0.00,,,0.00,VWS V14.01,2013-03-14 08:14:00,
2013-03-14 04:19:00,18.9,8.0,30.28,SW,232,0.0,0.0,62,0.00,,,0.00,VWS V14.01,2013-03-14 08:19:00,
2013-03-14 04:25:00,19.0,8.2,30.25,SW,232,0.0,0.0,62,0.00,,,0.00,VWS V14.01,2013-03-14 08:25:00,
2013-03-14 04:31:00,19.0,8.2,30.25,SW,232,0.0,0.0,62,0.00,,,0.00,VWS V14.01,2013-03-14 08:31:00,
2013-03-14 04:36:00,19.0,8.2,30.25,SW,232,0.0,0.0,62,0.00,,,0.00,VWS V14.01,2013-03-14 08:36:00,
2013-03-14 04:41:00,18.3,7.5,30.25,SW,232,0.0,0.0,62,0.00,,,0.00,VWS V14.01,2013-03-14 08:41:00,
2013-03-14 04:47:00,17.8,7.0,30.25,SW,232,0.0,0.0,62,0.00,,,0.00,VWS V14.01,2013-03-14 08:47:00,
2013-03-14 04:53:00,17.8,7.0,30.25,SW,232,0.0,0.0,62,0.00,,,0.00,VWS V14.01,2013-03-14 08:53:00,
2013-03-14 04:59:00,18.3,7.5,30.25,SW,232,0.0,0.0,62,0.00,,,0.00,VWS V14.01,2013-03-14 08:59:00,
2013-03-14 05:04:00,18.0,7.2,30.25,SW,232,0.0,0.0,62,0.00,,,0.00,VWS V14.01,2013-03-14 09:04:00,
2013-03-14 05:11:00,18.5,8.0,30.25,SW,219,0.0,0.0,63,0.00,,,0.00,VWS V14.01,2013-03-14 09:11:00,
2013-03-14 05:16:00,18.5,8.0,30.25,SW,219,0.0,0.0,63,0.00,,,0.00,VWS V14.01,2013-03-14 09:16:00,
2013-03-14 05:21:00,18.5,8.0,30.25,SW,219,0.0,0.0,63,0.00,,,0.00,VWS V14.01,2013-03-14 09:21:00,
2013-03-14 05:27:00,18.1,7.7,30.25,SW,219,0.0,0.0,63,0.00,,,0.00,VWS V14.01,2013-03-14 09:27:00,
2013-03-14 05:32:00,17.6,7.2,30.25,SW,219,0.0,0.0,63,0.00,,,0.00,VWS V14.01,2013-03-14 09:32:00,
2013-03-14 05:38:00,17.1,6.7,30.25,SW,219,0.0,0.0,63,0.00,,,0.00,VWS V14.01,2013-03-14 09:38:00,
2013-03-14 05:43:00,16.9,6.5,30.25,SW,219,0.0,0.0,63,0.00,,,0.00,VWS V14.01,2013-03-14 09:43:00,
2013-03-14 05:49:00,16.7,6.3,30.25,SW,219,0.0,0.0,63,0.00,,,0.00,VWS V14.01,2013-03-14 09:49:00,
2013-03-14 05:54:00,17.1,6.7,30.25,SW,219,0.0,0.0,63,0.00,,,0.00,VWS V14.01,2013-03-14 09:54:00,
2013-03-14 05:59:00,17.2,7.2,30.25,SW,219,0.0,0.0,64,0.00,,,0.00,VWS V14.01,2013-03-14 09:59:00,
2013-03-14 06:04:00,17.4,7.3,30.25,SW,219,0.0,0.0,64,0.00,,,0.00,VWS V14.01,2013-03-14 10:04:00,
2013-03-14 06:11:00,17.4,7.3,30.25,SW,219,0.0,0.0,64,0.00,,,0.00,VWS V14.01,2013-03-14 10:11:00,
2013-03-14 06:16:00,17.4,7.3,30.25,SW,219,0.0,0.0,64,0.00,,,0.00,VWS V14.01,2013-03-14 10:16:00,
2013-03-14 06:21:00,17.4,7.3,30.25,SW,219,0.0,0.0,64,0.00,,,0.00,VWS V14.01,2013-03-14 10:21:00,
2013-03-14 06:26:00,17.4,7.7,30.25,SW,219,0.0,0.0,65,0.00,,,0.00,VWS V14.01,2013-03-14 10:26:00,
2013-03-14 06:32:00,17.1,7.3,30.25,SW,219,0.0,0.0,65,0.00,,,0.00,VWS V14.01,2013-03-14 10:32:00,
2013-03-14 06:37:00,16.9,7.2,30.25,SW,219,0.0,0.0,65,0.00,,,0.00,VWS V14.01,2013-03-14 10:37:00,
2013-03-14 06:42:00,16.9,7.2,30.25,SW,219,0.0,0.0,65,0.00,,,0.00,VWS V14.01,2013-03-14 10:42:00,
2013-03-14 06:48:00,16.7,7.0,30.25,SW,219,0.0,0.0,65,0.00,,,0.00,VWS V14.01,2013-03-14 10:48:00,
2013-03-14 06:53:00,16.7,7.0,30.25,SW,219,0.0,0.0,65,0.00,,,0.00,VWS V14.01,2013-03-14 10:53:00,
2013-03-14 06:58:00,16.3,6.7,30.25,SW,219,0.0,0.0,65,0.00,,,0.00,VWS V14.01,2013-03-14 10:58:00,
2013-03-14 07:03:00,16.2,6.5,30.25,SW,219,0.0,0.0,65,0.00,,,0.00,VWS V14.01,2013-03-14 11:03:00,
2013-03-14 07:08:00,16.2,6.5,30.25,SW,219,0.0,0.0,65,0.00,,,0.00,VWS V14.01,2013-03-14 11:08:00,
2013-03-14 07:14:00,16.2,6.8,30.25,SW,219,0.0,0.0,66,0.00,,,0.00,VWS V14.01,2013-03-14 11:14:00,
2013-03-14 07:20:00,16.0,6.6,30.25,SW,219,0.0,0.0,66,0.00,,,0.00,VWS V14.01,2013-03-14 11:20:00,
2013-03-14 07:25:00,16.0,6.6,30.25,SW,219,0.0,0.0,66,0.00,,,0.00,VWS V14.01,2013-03-14 11:25:00,
2013-03-14 07:31:00,16.2,6.8,30.25,SW,219,0.0,0.0,66,0.00,,,0.00,VWS V14.01,2013-03-14 11:31:00,
2013-03-14 07:36:00,16.2,6.8,30.25,SW,219,0.0,0.0,66,0.00,,,0.00,VWS V14.01,2013-03-14 11:36:00,
2013-03-14 07:41:00,16.2,7.2,30.25,SW,219,0.0,0.0,67,0.00,,,0.00,VWS V14.01,2013-03-14 11:41:00,
2013-03-14 07:46:00,16.2,7.2,30.25,SW,219,0.0,0.0,67,0.00,,,0.00,VWS V14.01,2013-03-14 11:46:00,
2013-03-14 07:51:00,16.0,7.0,30.25,SW,219,0.0,0.0,67,0.00,,,0.00,VWS V14.01,2013-03-14 11:51:00,
2013-03-14 07:56:00,16.0,7.0,30.28,SW,219,0.0,0.0,67,0.00,,,0.00,VWS V14.01,2013-03-14 11:56:00,
2013-03-14 08:02:00,16.2,7.2,30.28,SW,219,0.0,0.0,67,0.00,,,0.00,VWS V14.01,2013-03-14 12:02:00,
2013-03-14 08:07:00,16.5,7.8,30.28,SW,219,0.0,0.0,68,0.00,,,0.00,VWS V14.01,2013-03-14 12:07:00,
2013-03-14 08:12:00,16.9,8.2,30.25,SW,219,0.0,0.0,68,0.00,,,0.00,VWS V14.01,2013-03-14 12:12:00,
2013-03-14 08:18:00,17.1,8.3,30.25,SW,219,0.0,0.0,68,0.00,,,0.00,VWS V14.01,2013-03-14 12:18:00,
2013-03-14 08:23:00,16.9,8.2,30.25,SW,219,0.0,0.0,68,0.00,,,0.00,VWS V14.01,2013-03-14 12:23:00,
2013-03-14 08:28:00,16.9,8.5,30.28,SW,219,0.0,0.0,69,0.00,,,0.00,VWS V14.01,2013-03-14 12:28:00,
2013-03-14 08:33:00,17.1,8.7,30.28,SW,219,0.0,0.0,69,0.00,,,0.00,VWS V14.01,2013-03-14 12:33:00,
2013-03-14 08:38:00,17.6,9.2,30.28,SW,219,0.0,0.0,69,0.00,,,0.00,VWS V14.01,2013-03-14 12:38:00,
2013-03-14 08:44:00,18.1,9.7,30.28,SW,219,0.0,0.0,69,0.00,,,0.00,VWS V14.01,2013-03-14 12:44:00,
2013-03-14 08:49:00,18.5,10.0,30.28,SW,219,0.0,0.0,69,0.00,,,0.00,VWS V14.01,2013-03-14 12:49:00,
2013-03-14 08:54:00,18.7,10.2,30.28,SW,219,0.0,0.0,69,0.00,,,0.00,VWS V14.01,2013-03-14 12:54:00,
2013-03-14 08:59:00,19.2,11.1,30.28,SW,219,0.0,0.0,70,0.00,,,0.00,VWS V14.01,2013-03-14 12:59:00,
2013-03-14 09:07:00,19.8,11.2,30.28,SW,222,4.0,6.7,69,0.00,,,0.00,VWS V14.01,2013-03-14 13:07:00,
2013-03-14 09:12:00,20.5,12.3,30.28,SW,218,4.0,7.8,70,0.00,,,0.00,VWS V14.01,2013-03-14 13:12:00,
2013-03-14 09:17:00,21.2,13.0,30.28,SSW,211,4.0,7.8,70,0.00,,,0.00,VWS V14.01,2013-03-14 13:17:00,
2013-03-14 09:22:00,21.9,13.6,30.28,SW,220,4.0,6.7,70,0.00,,,0.00,VWS V14.01,2013-03-14 13:22:00,
2013-03-14 09:27:00,22.5,14.2,30.28,SW,220,3.4,6.7,70,0.00,,,0.00,VWS V14.01,2013-03-14 13:27:00,
2013-03-14 09:33:00,23.0,14.7,30.28,SW,220,3.4,6.7,70,0.00,,,0.00,VWS V14.01,2013-03-14 13:33:00,
2013-03-14 09:38:00,23.5,14.9,30.28,SSW,213,3.4,7.8,69,0.00,,,0.00,VWS V14.01,2013-03-14 13:38:00,
2013-03-14 09:43:00,24.3,15.6,30.28,SSW,213,3.4,6.7,69,0.00,,,0.00,VWS V14.01,2013-03-14 13:43:00,
2013-03-14 09:48:00,25.0,15.9,30.28,SSW,213,4.7,7.8,68,0.00,,,0.00,VWS V14.01,2013-03-14 13:48:00,
2013-03-14 09:53:00,25.5,16.4,30.28,SSW,213,4.0,6.7,68,0.00,,,0.00,VWS V14.01,2013-03-14 13:53:00,
2013-03-14 09:58:00,25.9,16.8,30.28,SSW,213,3.4,6.7,68,0.00,,,0.00,VWS V14.01,2013-03-14 13:58:00,
2013-03-14 10:04:00,26.2,16.8,30.28,SSW,213,4.0,7.8,67,0.00,,,0.00,VWS V14.01,2013-03-14 14:04:00,
2013-03-14 10:09:00,26.8,17.3,30.28,SSW,213,0.0,0.0,67,0.00,,,0.00,VWS V14.01,2013-03-14 14:09:00,
2013-03-14 10:15:00,27.5,18.0,30.28,SSW,213,0.0,0.0,67,0.00,,,0.00,VWS V14.01,2013-03-14 14:15:00,
2013-03-14 10:21:00,28.0,18.5,30.28,SSW,213,0.0,0.0,67,0.00,,,0.00,VWS V14.01,2013-03-14 14:21:00,
2013-03-14 10:26:00,28.6,18.7,30.28,SSW,213,0.0,0.0,66,0.00,,,0.00,VWS V14.01,2013-03-14 14:26:00,
2013-03-14 10:32:00,29.1,19.2,30.28,WSW,250,4.0,6.7,66,0.00,,,0.00,VWS V14.01,2013-03-14 14:32:00,
2013-03-14 10:37:00,29.5,19.2,30.28,WSW,239,4.7,7.8,65,0.00,,,0.00,VWS V14.01,2013-03-14 14:37:00,
2013-03-14 10:42:00,30.0,19.7,30.28,WSW,245,4.0,7.8,65,0.00,,,0.00,VWS V14.01,2013-03-14 14:42:00,
2013-03-14 10:47:00,30.6,19.9,30.28,SW,229,4.7,10.1,64,0.00,,,0.00,VWS V14.01,2013-03-14 14:47:00,
2013-03-14 10:53:00,31.1,20.0,30.28,WSW,246,4.7,10.1,63,0.00,,,0.00,VWS V14.01,2013-03-14 14:53:00,
2013-03-14 10:58:00,31.5,20.0,30.28,SW,234,4.0,10.1,62,0.00,,,0.00,VWS V14.01,2013-03-14 14:58:00,
2013-03-14 11:04:00,31.8,19.9,30.28,WSW,248,6.0,10.1,61,0.00,,,0.00,VWS V14.01,2013-03-14 15:04:00,
2013-03-14 11:09:00,32.2,20.3,30.28,WSW,250,6.0,10.1,61,0.00,,,0.00,VWS V14.01,2013-03-14 15:09:00,
2013-03-14 11:14:00,32.5,20.2,30.28,SW,235,4.7,10.1,60,0.00,,,0.00,VWS V14.01,2013-03-14 15:14:00,
2013-03-14 11:19:00,32.9,20.5,30.28,WSW,238,5.4,8.9,60,0.00,,,0.00,VWS V14.01,2013-03-14 15:19:00,
2013-03-14 11:24:00,33.3,20.5,30.28,WSW,240,4.7,10.1,59,0.00,,,0.00,VWS V14.01,2013-03-14 15:24:00,
2013-03-14 11:29:00,33.4,20.7,30.28,WSW,247,6.0,10.1,59,0.00,,,0.00,VWS V14.01,2013-03-14 15:29:00,
2013-03-14 11:34:00,34.0,20.8,30.28,WSW,247,4.7,10.1,58,0.00,,,0.00,VWS V14.01,2013-03-14 15:34:00,
2013-03-14 11:39:00,34.7,21.0,30.28,SW,234,4.0,10.1,57,0.00,,,0.00,VWS V14.01,2013-03-14 15:39:00,
2013-03-14 11:44:00,35.4,21.7,30.28,WSW,238,4.7,8.9,57,0.00,,,0.00,VWS V14.01,2013-03-14 15:44:00,
2013-03-14 11:49:00,36.0,21.4,30.28,WSW,243,4.7,7.8,55,0.00,,,0.00,VWS V14.01,2013-03-14 15:49:00,
2013-03-14 11:54:00,36.7,22.0,30.28,WSW,243,4.0,7.8,55,0.00,,,0.00,VWS V14.01,2013-03-14 15:54:00,
2013-03-14 12:01:00,37.4,21.9,30.28,SW,233,3.4,8.9,53,0.00,,,0.00,VWS V14.01,2013-03-14 16:01:00,
2013-03-14 12:06:00,38.1,22.5,30.28,SW,232,4.7,8.9,53,0.00,,,0.00,VWS V14.01,2013-03-14 16:06:00,
2013-03-14 12:12:00,38.8,22.3,30.28,WSW,240,5.4,10.1,51,0.00,,,0.00,VWS V14.01,2013-03-14 16:12:00,
2013-03-14 12:17:00,39.4,22.3,30.28,WSW,247,4.0,8.9,50,0.00,,,0.00,VWS V14.01,2013-03-14 16:17:00,
2013-03-14 12:22:00,40.3,22.7,30.28,SSW,201,0.0,6.7,49,0.00,,,0.00,VWS V14.01,2013-03-14 16:22:00,
2013-03-14 12:28:00,40.5,21.8,30.28,WSW,248,4.0,8.9,47,0.00,,,0.00,VWS V14.01,2013-03-14 16:28:00,
2013-03-14 12:33:00,40.8,22.2,30.28,West,266,3.4,7.8,47,0.00,,,0.00,VWS V14.01,2013-03-14 16:33:00,
2013-03-14 12:39:00,40.8,21.7,30.28,SW,229,3.4,7.8,46,0.00,,,0.00,VWS V14.01,2013-03-14 16:39:00,
2013-03-14 12:45:00,41.0,20.8,30.25,SSW,193,4.0,8.9,44,0.00,,,0.00,VWS V14.01,2013-03-14 16:45:00,
2013-03-14 12:50:00,41.4,20.6,30.25,SW,215,4.0,10.1,43,0.00,,,0.00,VWS V14.01,2013-03-14 16:50:00,
2013-03-14 12:56:00,41.7,20.9,30.25,WSW,253,4.0,8.9,43,0.00,,,0.00,VWS V14.01,2013-03-14 16:56:00,
2013-03-14 13:01:00,41.5,20.7,30.25,South,187,6.0,12.3,43,0.00,,,0.00,VWS V14.01,2013-03-14 17:01:00,
2013-03-14 13:06:00,41.4,20.0,30.25,SW,221,4.0,10.1,42,0.00,,,0.00,VWS V14.01,2013-03-14 17:06:00,
2013-03-14 13:11:00,41.5,20.2,30.25,South,186,6.0,13.4,42,0.00,,,0.00,VWS V14.01,2013-03-14 17:11:00,
2013-03-14 13:16:00,41.7,20.9,30.25,WSW,239,4.0,8.9,43,0.00,,,0.00,VWS V14.01,2013-03-14 17:16:00,
2013-03-14 13:21:00,41.7,20.3,30.25,WSW,240,4.7,7.8,42,0.00,,,0.00,VWS V14.01,2013-03-14 17:21:00,
2013-03-14 13:27:00,41.7,20.3,30.25,SSE,158,5.4,8.9,42,0.00,,,0.00,VWS V14.01,2013-03-14 17:27:00,
2013-03-14 13:32:00,41.9,20.5,30.25,SW,233,4.0,12.3,42,0.00,,,0.00,VWS V14.01,2013-03-14 17:32:00,
2013-03-14 13:38:00,42.1,20.7,30.25,West,280,0.0,5.6,42,0.00,,,0.00,VWS V14.01,2013-03-14 17:38:00,
2013-03-14 13:43:00,42.3,20.8,30.25,WSW,246,0.0,0.0,42,0.00,,,0.00,VWS V14.01,2013-03-14 17:43:00,
2013-03-14 13:48:00,42.3,20.8,30.25,SSW,212,4.0,6.7,42,0.00,,,0.00,VWS V14.01,2013-03-14 17:48:00,
2013-03-14 13:53:00,41.9,19.9,30.25,SSW,200,5.4,8.9,41,0.00,,,0.00,VWS V14.01,2013-03-14 17:53:00,
2013-03-14 13:59:00,42.4,20.4,30.25,South,180,4.7,13.4,41,0.00,,,0.00,VWS V14.01,2013-03-14 17:59:00,
2013-03-14 14:04:00,42.4,20.4,30.25,SW,220,4.0,8.9,41,0.00,,,0.00,VWS V14.01,2013-03-14 18:04:00,
2013-03-14 14:09:00,43.0,20.9,30.25,SW,234,3.4,6.7,41,0.00,,,0.00,VWS V14.01,2013-03-14 18:09:00,
2013-03-14 14:14:00,42.6,20.6,30.22,WSW,258,3.4,10.1,41,0.00,,,0.00,VWS V14.01,2013-03-14 18:14:00,
2013-03-14 14:20:00,43.5,21.4,30.22,South,182,4.0,6.7,41,0.00,,,0.00,VWS V14.01,2013-03-14 18:20:00,
2013-03-14 14:26:00,43.7,21.0,30.22,SW,220,3.4,6.7,40,0.00,,,0.00,VWS V14.01,2013-03-14 18:26:00,
2013-03-14 14:31:00,43.7,21.0,30.22,SW,223,6.0,10.1,40,0.00,,,0.00,VWS V14.01,2013-03-14 18:31:00,
2013-03-14 14:37:00,44.2,21.5,30.22,SSW,207,4.0,10.1,40,0.00,,,0.00,VWS V14.01,2013-03-14 18:37:00,
2013-03-14 14:42:00,45.0,21.5,30.22,SW,216,4.7,14.5,39,0.00,,,0.00,VWS V14.01,2013-03-14 18:42:00,
2013-03-14 14:48:00,45.0,21.5,30.22,South,176,6.0,10.1,39,0.00,,,0.00,VWS V14.01,2013-03-14 18:48:00,
2013-03-14 14:53:00,44.8,21.4,30.22,SSW,212,4.7,7.8,39,0.00,,,0.00,VWS V14.01,2013-03-14 18:53:00,
2013-03-14 14:59:00,45.3,21.8,30.22,West,262,4.0,7.8,39,0.00,,,0.00,VWS V14.01,2013-03-14 18:59:00,
2013-03-14 15:04:00,45.5,22.0,30.22,WSW,257,5.4,13.4,39,0.00,,,0.00,VWS V14.01,2013-03-14 19:04:00,
2013-03-14 15:09:00,43.9,20.5,30.22,SW,231,4.0,6.7,39,0.00,,,0.00,VWS V14.01,2013-03-14 19:09:00,
2013-03-14 15:15:00,44.4,21.0,30.22,WSW,242,5.4,8.9,39,0.00,,,0.00,VWS V14.01,2013-03-14 19:15:00,
2013-03-14 15:21:00,43.5,20.2,30.22,WSW,251,3.4,10.1,39,0.00,,,0.00,VWS V14.01,2013-03-14 19:21:00,
2013-03-14 15:27:00,42.6,19.4,30.22,SSW,208,4.7,7.8,39,0.00,,,0.00,VWS V14.01,2013-03-14 19:27:00,
2013-03-14 15:33:00,41.9,18.8,30.22,WSW,247,4.7,8.9,39,0.00,,,0.00,VWS V14.01,2013-03-14 19:33:00,
2013-03-14 15:38:00,42.1,19.5,30.22,West,264,4.0,13.4,40,0.00,,,0.00,VWS V14.01,2013-03-14 19:38:00,
2013-03-14 15:44:00,41.0,18.5,30.19,WSW,237,5.4,12.3,40,0.00,,,0.00,VWS V14.01,2013-03-14 19:44:00,
2013-03-14 15:52:00,40.5,18.1,30.19,WSW,252,4.7,10.1,40,0.00,,,0.00,VWS V14.01,2013-03-14 19:52:00,
2013-03-14 15:57:00,40.6,18.8,30.19,SW,221,7.4,13.4,41,0.00,,,0.00,VWS V14.01,2013-03-14 19:57:00,
2013-03-14 16:02:00,41.5,19.0,30.19,WSW,241,4.7,8.9,40,0.00,,,0.00,VWS V14.01,2013-03-14 20:02:00,
2013-03-14 16:07:00,41.4,18.9,30.19,WSW,256,5.4,10.1,40,0.00,,,0.00,VWS V14.01,2013-03-14 20:07:00,
2013-03-14 16:12:00,41.9,19.4,30.19,West,265,0.0,0.0,40,0.00,,,0.00,VWS V14.01,2013-03-14 20:12:00,
2013-03-14 16:18:00,41.2,19.3,30.19,West,274,4.7,12.3,41,0.00,,,0.00,VWS V14.01,2013-03-14 20:18:00,
2013-03-14 16:23:00,40.3,18.5,30.19,WSW,238,4.7,7.8,41,0.00,,,0.00,VWS V14.01,2013-03-14 20:23:00,
2013-03-14 16:28:00,40.3,17.9,30.19,West,263,0.0,0.0,40,0.00,,,0.00,VWS V14.01,2013-03-14 20:28:00,
2013-03-14 16:33:00,40.8,19.0,30.19,WSW,241,5.4,8.9,41,0.00,,,0.00,VWS V14.01,2013-03-14 20:33:00,
2013-03-14 16:38:00,41.0,18.5,30.19,NW,304,4.0,8.9,40,0.00,,,0.00,VWS V14.01,2013-03-14 20:38:00,
2013-03-14 16:43:00,40.6,18.2,30.19,WNW,291,6.7,12.3,40,0.00,,,0.00,VWS V14.01,2013-03-14 20:43:00,
2013-03-14 16:48:00,40.6,18.2,30.19,WNW,285,4.0,12.3,40,0.00,,,0.00,VWS V14.01,2013-03-14 20:48:00,
2013-03-14 16:53:00,40.8,18.4,30.19,West,278,5.4,8.9,40,0.00,,,0.00,VWS V14.01,2013-03-14 20:53:00,
2013-03-14 16:58:00,41.0,18.5,30.19,WSW,255,4.0,6.7,40,0.00,,,0.00,VWS V14.01,2013-03-14 20:58:00,
2013-03-14 17:03:00,41.0,18.5,30.19,West,279,0.0,0.0,40,0.00,,,0.00,VWS V14.01,2013-03-14 21:03:00,
2013-03-14 17:08:00,40.8,18.4,30.19,West,272,0.0,7.8,40,0.00,,,0.00,VWS V14.01,2013-03-14 21:08:00,
2013-03-14 17:13:00,41.2,18.7,30.19,SW,228,3.4,8.9,40,0.00,,,0.00,VWS V14.01,2013-03-14 21:13:00,
2013-03-14 17:18:00,41.2,18.7,30.19,WSW,256,4.7,7.8,40,0.00,,,0.00,VWS V14.01,2013-03-14 21:18:00,
2013-03-14 17:23:00,41.4,18.9,30.19,SW,233,0.0,0.0,40,0.00,,,0.00,VWS V14.01,2013-03-14 21:23:00,
2013-03-14 17:28:00,41.0,18.5,30.16,West,265,0.0,5.6,40,0.00,,,0.00,VWS V14.01,2013-03-14 21:28:00,
2013-03-14 17:33:00,41.0,18.5,30.16,West,265,0.0,0.0,40,0.00,,,0.00,VWS V14.01,2013-03-14 21:33:00,
2013-03-14 17:38:00,40.5,18.1,30.16,West,265,0.0,0.0,40,0.00,,,0.00,VWS V14.01,2013-03-14 21:38:00,
2013-03-14 17:43:00,40.5,18.1,30.19,NW,304,6.0,10.1,40,0.00,,,0.00,VWS V14.01,2013-03-14 21:43:00,
2013-03-14 17:48:00,40.5,18.1,30.19,WSW,247,0.0,0.0,40,0.00,,,0.00,VWS V14.01,2013-03-14 21:48:00,
2013-03-14 17:53:00,40.5,18.1,30.19,WNW,298,8.1,13.4,40,0.00,,,0.00,VWS V14.01,2013-03-14 21:53:00,
2013-03-14 17:59:00,40.5,18.1,30.19,WNW,288,7.4,13.4,40,0.00,,,0.00,VWS V14.01,2013-03-14 21:59:00,
2013-03-14 18:04:00,40.5,18.1,30.19,WNW,296,4.0,8.9,40,0.00,,,0.00,VWS V14.01,2013-03-14 22:04:00,
2013-03-14 18:09:00,39.9,17.6,30.19,WNW,286,4.7,10.1,40,0.00,,,0.00,VWS V14.01,2013-03-14 22:09:00,
2013-03-14 18:14:00,39.4,17.1,30.19,WNW,288,4.0,7.8,40,0.00,,,0.00,VWS V14.01,2013-03-14 22:14:00,
2013-03-14 18:19:00,38.8,16.6,30.19,WNW,300,0.0,0.0,40,0.00,,,0.00,VWS V14.01,2013-03-14 22:19:00,
2013-03-14 18:24:00,38.3,16.1,30.19,WNW,302,0.0,7.8,40,0.00,,,0.00,VWS V14.01,2013-03-14 22:24:00,
2013-03-14 18:29:00,37.9,15.8,30.16,WNW,291,0.0,0.0,40,0.00,,,0.00,VWS V14.01,2013-03-14 22:29:00,
2013-03-14 18:34:00,37.8,16.2,30.16,WNW,284,0.0,6.7,41,0.00,,,0.00,VWS V14.01,2013-03-14 22:34:00,
2013-03-14 18:39:00,37.8,16.2,30.16,WNW,299,0.0,7.8,41,0.00,,,0.00,VWS V14.01,2013-03-14 22:39:00,
2013-03-14 18:44:00,37.9,16.4,30.16,West,278,5.4,8.9,41,0.00,,,0.00,VWS V14.01,2013-03-14 22:44:00,
2013-03-14 18:49:00,37.9,16.4,30.16,WNW,286,0.0,0.0,41,0.00,,,0.00,VWS V14.01,2013-03-14 22:49:00,
2013-03-14 18:54:00,37.9,16.9,30.16,West,277,0.0,0.0,42,0.00,,,0.00,VWS V14.01,2013-03-14 22:54:00,
2013-03-14 18:59:00,37.4,16.4,30.16,WNW,290,0.0,6.7,42,0.00,,,0.00,VWS V14.01,2013-03-14 22:59:00,
2013-03-14 19:04:00,37.0,16.1,30.16,WNW,290,0.0,0.0,42,0.00,,,0.00,VWS V14.01,2013-03-14 23:04:00,
2013-03-14 19:09:00,36.5,15.6,30.16,West,275,0.0,0.0,42,0.00,,,0.00,VWS V14.01,2013-03-14 23:09:00,
2013-03-14 19:14:00,36.0,15.1,30.16,SW,232,5.4,8.9,42,0.00,,,0.00,VWS V14.01,2013-03-14 23:14:00,
2013-03-14 19:19:00,35.4,15.2,30.16,West,265,0.0,5.6,43,0.00,,,0.00,VWS V14.01,2013-03-14 23:19:00,
2013-03-14 19:24:00,35.2,15.0,30.16,West,267,0.0,0.0,43,0.00,,,0.00,VWS V14.01,2013-03-14 23:24:00,
2013-03-14 19:29:00,35.4,15.7,30.19,West,268,0.0,0.0,44,0.00,,,0.00,VWS V14.01,2013-03-14 23:29:00,
2013-03-14 19:34:00,35.2,15.5,30.19,West,267,0.0,0.0,44,0.00,,,0.00,VWS V14.01,2013-03-14 23:34:00,
2013-03-14 19:39:00,35.1,15.9,30.19,SW,216,0.0,6.7,45,0.00,,,0.00,VWS V14.01,2013-03-14 23:39:00,
2013-03-14 19:44:00,34.9,15.7,30.19,SW,216,0.0,0.0,45,0.00,,,0.00,VWS V14.01,2013-03-14 23:44:00,
2013-03-14 19:50:00,34.2,15.1,30.19,SW,225,0.0,0.0,45,0.00,,,0.00,VWS V14.01,2013-03-14 23:50:00,
2013-03-14 19:55:00,33.8,14.7,30.16,SW,228,0.0,0.0,45,0.00,,,0.00,VWS V14.01,2013-03-14 23:55:00,
2013-03-14 20:00:00,33.1,14.6,30.16,SW,228,0.0,0.0,46,0.00,,,0.00,VWS V14.01,2013-03-15 00:00:00,
2013-03-14 20:06:00,32.7,14.7,30.16,SW,228,0.0,0.0,47,0.00,,,0.00,VWS V14.01,2013-03-15 00:06:00,
2013-03-14 20:11:00,32.7,14.7,30.16,SW,228,0.0,0.0,47,0.00,,,0.00,VWS V14.01,2013-03-15 00:11:00,
2013-03-14 20:16:00,32.9,15.4,30.16,SW,228,0.0,0.0,48,0.00,,,0.00,VWS V14.01,2013-03-15 00:16:00,
2013-03-14 20:23:00,33.3,16.2,30.16,SSW,209,0.0,0.0,49,0.00,,,0.00,VWS V14.01,2013-03-15 00:23:00,
2013-03-14 20:28:00,33.3,16.2,30.16,SSW,209,0.0,0.0,49,0.00,,,0.00,VWS V14.01,2013-03-15 00:28:00,
2013-03-14 20:33:00,33.3,16.2,30.16,SSW,209,0.0,0.0,49,0.00,,,0.00,VWS V14.01,2013-03-15 00:33:00,
2013-03-14 20:38:00,33.3,16.2,30.16,WSW,238,0.0,0.0,49,0.00,,,0.00,VWS V14.01,2013-03-15 00:38:00,
2013-03-14 20:43:00,33.3,16.6,30.13,WSW,237,0.0,0.0,50,0.00,,,0.00,VWS V14.01,2013-03-15 00:43:00,
2013-03-14 20:48:00,33.3,16.6,30.13,WSW,237,0.0,0.0,50,0.00,,,0.00,VWS V14.01,2013-03-15 00:48:00,
2013-03-14 20:53:00,33.1,16.5,30.13,WSW,238,0.0,0.0,50,0.00,,,0.00,VWS V14.01,2013-03-15 00:53:00,
2013-03-14 20:58:00,33.1,16.5,30.13,WSW,237,0.0,0.0,50,0.00,,,0.00,VWS V14.01,2013-03-15 00:58:00,
2013-03-14 21:03:00,33.1,16.5,30.13,SW,222,0.0,0.0,50,0.00,,,0.00,VWS V14.01,2013-03-15 01:03:00,
2013-03-14 21:08:00,32.9,16.3,30.13,SW,223,0.0,0.0,50,0.00,,,0.00,VWS V14.01,2013-03-15 01:08:00,
2013-03-14 21:13:00,32.9,16.3,30.13,SW,232,0.0,0.0,50,0.00,,,0.00,VWS V14.01,2013-03-15 01:13:00,
2013-03-14 21:18:00,32.9,16.3,30.13,SW,233,0.0,0.0,50,0.00,,,0.00,VWS V14.01,2013-03-15 01:18:00,
2013-03-14 21:23:00,32.9,16.3,30.13,SW,217,4.0,7.8,50,0.00,,,0.00,VWS V14.01,2013-03-15 01:23:00,
2013-03-14 21:28:00,32.7,16.6,30.13,SW,234,0.0,0.0,51,0.00,,,0.00,VWS V14.01,2013-03-15 01:28:00,
2013-03-14 21:33:00,32.7,16.6,30.13,SW,234,0.0,0.0,51,0.00,,,0.00,VWS V14.01,2013-03-15 01:33:00,
2013-03-14 21:38:00,32.5,16.4,30.13,SW,234,0.0,0.0,51,0.00,,,0.00,VWS V14.01,2013-03-15 01:38:00,
2013-03-14 21:46:00,32.4,16.3,30.13,SW,234,4.0,6.7,51,0.00,,,0.00,VWS V14.01,2013-03-15 01:46:00,
2013-03-14 21:52:00,32.2,16.1,30.13,SW,234,4.0,6.7,51,0.00,,,0.00,VWS V14.01,2013-03-15 01:52:00,
2013-03-14 21:57:00,31.5,15.9,30.13,SW,234,0.0,6.7,52,0.00,,,0.00,VWS V14.01,2013-03-15 01:57:00,
2013-03-14 22:02:00,31.1,15.5,30.13,SW,234,0.0,0.0,52,0.00,,,0.00,VWS V14.01,2013-03-15 02:02:00,
2013-03-14 22:07:00,30.7,15.2,30.13,SW,234,0.0,0.0,52,0.00,,,0.00,VWS V14.01,2013-03-15 02:07:00,
2013-03-14 22:12:00,30.6,15.0,30.13,SW,234,0.0,0.0,52,0.00,,,0.00,VWS V14.01,2013-03-15 02:12:00,
2013-03-14 22:17:00,30.4,15.3,30.13,SW,234,0.0,0.0,53,0.00,,,0.00,VWS V14.01,2013-03-15 02:17:00,
2013-03-14 22:22:00,30.2,15.1,30.13,SW,234,0.0,0.0,53,0.00,,,0.00,VWS V14.01,2013-03-15 02:22:00,
2013-03-14 22:27:00,30.0,15.4,30.13,SW,234,0.0,0.0,54,0.00,,,0.00,VWS V14.01,2013-03-15 02:27:00,
2013-03-14 22:32:00,30.0,15.4,30.13,SW,234,0.0,0.0,54,0.00,,,0.00,VWS V14.01,2013-03-15 02:32:00,
2013-03-14 22:37:00,29.8,15.2,30.13,SW,234,0.0,0.0,54,0.00,,,0.00,VWS V14.01,2013-03-15 02:37:00,
2013-03-14 22:42:00,29.7,15.5,30.13,SW,234,0.0,0.0,55,0.00,,,0.00,VWS V14.01,2013-03-15 02:42:00,
2013-03-14 22:47:00,29.7,15.5,30.13,SW,234,0.0,0.0,55,0.00,,,0.00,VWS V14.01,2013-03-15 02:47:00,
2013-03-14 22:52:00,29.5,15.7,30.13,SW,234,0.0,0.0,56,0.00,,,0.00,VWS V14.01,2013-03-15 02:52:00,
2013-03-14 22:58:00,29.5,15.7,30.13,SW,234,0.0,0.0,56,0.00,,,0.00,VWS V14.01,2013-03-15 02:58:00,
2013-03-14 23:04:00,29.5,15.7,30.13,SW,234,0.0,0.0,56,0.00,,,0.00,VWS V14.01,2013-03-15 03:04:00,
2013-03-14 23:09:00,30.0,16.6,30.13,SW,234,0.0,0.0,57,0.00,,,0.00,VWS V14.01,2013-03-15 03:09:00,
2013-03-14 23:14:00,30.4,17.0,30.13,SW,234,0.0,0.0,57,0.00,,,0.00,VWS V14.01,2013-03-15 03:14:00,
2013-03-14 23:19:00,30.7,17.3,30.13,SW,234,0.0,0.0,57,0.00,,,0.00,VWS V14.01,2013-03-15 03:19:00,
2013-03-14 23:24:00,30.9,17.5,30.13,SW,234,0.0,0.0,57,0.00,,,0.00,VWS V14.01,2013-03-15 03:24:00,
2013-03-14 23:29:00,30.6,17.1,30.13,SW,234,0.0,0.0,57,0.00,,,0.00,VWS V14.01,2013-03-15 03:29:00,
2013-03-14 23:34:00,30.2,17.2,30.13,SW,234,0.0,0.0,58,0.00,,,0.00,VWS V14.01,2013-03-15 03:34:00,
2013-03-14 23:39:00,29.8,16.9,30.13,SW,234,0.0,0.0,58,0.00,,,0.00,VWS V14.01,2013-03-15 03:39:00,
2013-03-14 23:44:00,29.8,16.9,30.10,SSW,206,0.0,0.0,58,0.00,,,0.00,VWS V14.01,2013-03-15 03:44:00,
2013-03-14 23:49:00,30.2,17.6,30.10,SSW,206,0.0,0.0,59,0.00,,,0.00,VWS V14.01,2013-03-15 03:49:00,
2013-03-14 23:54:00,30.4,17.8,30.10,SSW,206,0.0,0.0,59,0.00,,,0.00,VWS V14.01,2013-03-15 03:54:00,
2013-03-14 23:59:00,30.2,17.6,30.10,SW,227,0.0,0.0,59,0.00,,,0.00,VWS V14.01,2013-03-15 03:59:00,